This is the latest recevied weather packets stored in our database for station/object SQ6RR-12. If no packets are shown the sender has not sent any weather packets the latest 10 day(s).
| Time | Temp. | Humidity | Pressure | Rain* | Wind** | Luminosity | Snow |
|---|---|---|---|---|---|---|---|
| 1777404592 | 4.44° C | 49% | 1024.7 hPa | 0 mm | - | - | - |
| 1777404345 | 3.89° C | 47% | 1024.7 hPa | 0 mm | - | - | - |
| 1777404093 | 3.89° C | 46% | 1024.7 hPa | 0 mm | - | - | - |
| 1777403812 | 5° C | 44% | 1024.6 hPa | 0 mm | - | - | - |
| 1777403567 | 6.11° C | 44% | 1024.6 hPa | 0 mm | - | - | - |
| 1777403308 | 6.11° C | 43% | 1024.6 hPa | 0 mm | - | - | - |
| 1777403033 | 6.11° C | 42% | 1024.6 hPa | 0 mm | - | - | - |
| 1777402753 | 6.11° C | 39% | 1024.5 hPa | 0 mm | - | - | - |
| 1777402502 | 6.67° C | 40% | 1024.4 hPa | 0 mm | - | - | - |
| 1777402227 | 6.67° C | 38% | 1024.4 hPa | 0 mm | - | - | - |
| 1777401955 | 7.78° C | 38% | 1024.4 hPa | 0 mm | - | - | - |
| 1777401696 | 7.22° C | 40% | 1024.3 hPa | 0 mm | - | - | - |
| 1777401442 | 7.22° C | 38% | 1024.2 hPa | 0 mm | - | - | - |
| 1777401171 | 7.78° C | 35% | 1024.1 hPa | 0 mm | - | - | - |
| 1777400897 | 7.78° C | 34% | 1024.1 hPa | 0 mm | - | - | - |
| 1777400633 | 8.33° C | 33% | 1024 hPa | 0 mm | - | - | - |
| 1777400373 | 7.78° C | 32% | 1023.9 hPa | 0 mm | - | - | - |
| 1777400095 | 8.33° C | 32% | 1023.9 hPa | 0 mm | - | - | - |
| 1777399818 | 7.78° C | 32% | 1023.8 hPa | 0 mm | - | - | - |
| 1777399540 | 7.78° C | 32% | 1023.8 hPa | 0 mm | - | - | - |
| 1777399277 | 7.78° C | 32% | 1023.7 hPa | 0 mm | - | - | - |
| 1777399014 | 8.33° C | 31% | 1023.7 hPa | 0 mm | - | - | - |
| 1777398737 | 8.33° C | 32% | 1023.7 hPa | 0 mm | - | - | - |
| 1777398478 | 9.44° C | 31% | 1023.6 hPa | 0 mm | - | - | - |
| 1777398218 | 10° C | 30% | 1023.6 hPa | 0 mm | - | - | - |
* Rain latest hour (hover to see other rain measurements)
** Current wind speed in m/s (hover to see current wind gust speed)